#Datum;Uhrzeit;WR;Pac;DaySum;Status;WR;Pac;DaySum;Status;Pdc1;Udc;Temp;WR;Pac;DaySum;Status;Pdc1;Udc;Temp;WR;Pac;DaySum;Status;Pdc1;Udc;Temp;WR;Pac;DaySum;Status;Pdc1;Pdc2;Udc1;Udc2;Temp;WR;Pac;DaySum;Status;Pdc1;Pdc2;Udc1;Udc2;Temp;WR;Pac;DaySum;Status;Pdc1;Udc;Temp;WR;Pac;DaySum;Status;Pdc1;Udc;Temp;WR;Pac;DaySum;Status;Pdc1;Udc;Temp
20.02.20;23:55:00;1;350;10805;0;2;0;7689;0;0;0;0;3;0;4913;0;0;0;0;4;0;6982;0;0;0;0;5;0;16767;0;0;0;0;0;0;6;0;12517;0;0;0;0;0;0;7;0;9406;0;0;0;0;8;0;9431;0;0;0;0;9;0;5155;0;0;0;0
20.02.20;23:50:00;1;312;10776;0;2;0;7689;0;0;0;0;3;0;4913;0;0;0;0;4;0;6982;0;0;0;0;5;0;16767;0;0;0;0;0;0;6;0;12517;0;0;0;0;0;0;7;0;9406;0;0;0;0;8;0;9431;0;0;0;0;9;0;5155;0;0;0;0
20.02.20;23:45:00;1;305;10750;0;2;0;7689;0;0;0;0;3;0;4913;0;0;0;0;4;0;6982;0;0;0;0;5;0;16767;0;0;0;0;0;0;6;0;12517;0;0;0;0;0;0;7;0;9406;0;0;0;0;8;0;9431;0;0;0;0;9;0;5155;0;0;0;0
20.02.20;23:40:00;1;305;10724;0;2;0;7689;0;0;0;0;3;0;4913;0;0;0;0;4;0;6982;0;0;0;0;5;0;16767;0;0;0;0;0;0;6;0;12517;0;0;0;0;0;0;7;0;9406;0;0;0;0;8;0;9431;0;0;0;0;9;0;5155;0;0;0;0
20.02.20;23:35:00;1;309;10698;0;2;0;7689;0;0;0;0;3;0;4913;0;0;0;0;4;0;6982;0;0;0;0;5;0;16767;0;0;0;0;0;0;6;0;12517;0;0;0;0;0;0;7;0;9406;0;0;0;0;8;0;9431;0;0;0;0;9;0;5155;0;0;0;0
20.02.20;23:30:00;1;295;10674;0;2;0;7689;0;0;0;0;3;0;4913;0;0;0;0;4;0;6982;0;0;0;0;5;0;16767;0;0;0;0;0;0;6;0;12517;0;0;0;0;0;0;7;0;9406;0;0;0;0;8;0;9431;0;0;0;0;9;0;5155;0;0;0;0
20.02.20;23:25:00;1;242;10629;0;2;0;7689;0;0;0;0;3;0;4913;0;0;0;0;4;0;6982;0;0;0;0;5;0;16767;0;0;0;0;0;0;6;0;12517;0;0;0;0;0;0;7;0;9406;0;0;0;0;8;0;9431;0;0;0;0;9;0;5155;0;0;0;0
20.02.20;23:20:00;1;243;10608;0;2;0;7689;0;0;0;0;3;0;4913;0;0;0;0;4;0;6982;0;0;0;0;5;0;16767;0;0;0;0;0;0;6;0;12517;0;0;0;0;0;0;7;0;9406;0;0;0;0;8;0;9431;0;0;0;0;9;0;5155;0;0;0;0
20.02.20;23:15:00;1;279;10588;0;2;0;7689;0;0;0;0;3;0;4913;0;0;0;0;4;0;6982;0;0;0;0;5;0;16767;0;0;0;0;0;0;6;0;12517;0;0;0;0;0;0;7;0;9406;0;0;0;0;8;0;9431;0;0;0;0;9;0;5155;0;0;0;0
20.02.20;23:10:00;1;288;10564;0;2;0;7689;0;0;0;0;3;0;4913;0;0;0;0;4;0;6982;0;0;0;0;5;0;16767;0;0;0;0;0;0;6;0;12517;0;0;0;0;0;0;7;0;9406;0;0;0;0;8;0;9431;0;0;0;0;9;0;5155;0;0;0;0
20.02.20;23:05:00;1;290;10540;0;2;0;7689;0;0;0;0;3;0;4913;0;0;0;0;4;0;6982;0;0;0;0;5;0;16767;0;0;0;0;0;0;6;0;12517;0;0;0;0;0;0;7;0;9406;0;0;0;0;8;0;9431;0;0;0;0;9;0;5155;0;0;0;0
20.02.20;23:00:00;1;296;10516;0;2;0;7689;0;0;0;0;3;0;4913;0;0;0;0;4;0;6982;0;0;0;0;5;0;16767;0;0;0;0;0;0;6;0;12517;0;0;0;0;0;0;7;0;9406;0;0;0;0;8;0;9431;0;0;0;0;9;0;5155;0;0;0;0
20.02.20;22:55:00;1;245;10491;0;2;0;7689;0;0;0;0;3;0;4913;0;0;0;0;4;0;6982;0;0;0;0;5;0;16767;2;0;0;0;0;0;6;0;12517;2;0;0;0;0;0;7;0;9406;0;0;0;0;8;0;9431;0;0;0;0;9;0;5155;0;0;0;0
20.02.20;22:50:00;1;244;10470;0;2;0;7689;0;0;0;0;3;0;4913;0;0;0;0;4;0;6982;0;0;0;0;5;0;16767;2;0;0;0;0;0;6;0;12517;2;0;0;0;0;0;7;0;9406;0;0;0;0;8;0;9431;0;0;0;0;9;0;5155;0;0;0;0
20.02.20;22:45:00;1;254;10450;0;2;0;7689;0;0;0;0;3;0;4913;0;0;0;0;4;0;6982;0;0;0;0;5;0;16767;2;0;0;0;0;0;6;0;12517;2;0;0;0;0;0;7;0;9406;0;0;0;0;8;0;9431;0;0;0;0;9;0;5155;0;0;0;0
20.02.20;22:40:00;1;244;10406;0;2;0;7689;0;0;0;0;3;0;4913;0;0;0;0;4;0;6982;0;0;0;0;5;0;16767;2;0;0;0;0;0;6;0;12517;2;0;0;0;0;0;7;0;9406;0;0;0;0;8;0;9431;0;0;0;0;9;0;5155;0;0;0;0
20.02.20;22:35:00;1;244;10386;0;2;0;7689;0;0;0;0;3;0;4913;0;0;0;0;4;0;6982;0;0;0;0;5;0;16767;2;0;0;0;0;0;6;0;12517;2;0;0;0;0;0;7;0;9406;0;0;0;0;8;0;9431;0;0;0;0;9;0;5155;0;0;0;0
20.02.20;22:30:00;1;251;10365;0;2;0;7689;0;0;0;0;3;0;4913;0;0;0;0;4;0;6982;0;0;0;0;5;0;16767;2;0;0;0;0;0;6;0;12517;2;0;0;0;0;0;7;0;9406;0;0;0;0;8;0;9431;0;0;0;0;9;0;5155;0;0;0;0
20.02.20;22:25:00;1;330;10343;0;2;0;7689;0;0;0;0;3;0;4913;0;0;0;0;4;0;6982;0;0;0;0;5;0;16767;2;0;0;0;0;0;6;0;12517;2;0;0;0;0;0;7;0;9406;0;0;0;0;8;0;9431;0;0;0;0;9;0;5155;0;0;0;0
20.02.20;22:20:00;1;290;10316;0;2;0;7689;0;0;0;0;3;0;4913;0;0;0;0;4;0;6982;0;0;0;0;5;0;16767;2;0;0;0;0;0;6;0;12517;2;0;0;0;0;0;7;0;9406;0;0;0;0;8;0;9431;0;0;0;0;9;0;5155;0;0;0;0
20.02.20;22:15:00;1;292;10292;0;2;0;7689;0;0;0;0;3;0;4913;0;0;0;0;4;0;6982;0;0;0;0;5;0;16767;2;0;0;0;0;0;6;0;12517;2;0;0;0;0;0;7;0;9406;0;0;0;0;8;0;9431;0;0;0;0;9;0;5155;0;0;0;0
20.02.20;22:10:00;1;284;10268;0;2;0;7689;0;0;0;0;3;0;4913;0;0;0;0;4;0;6982;0;0;0;0;5;0;16767;2;0;0;0;0;0;6;0;12517;2;0;0;0;0;0;7;0;9406;0;0;0;0;8;0;9431;0;0;0;0;9;0;5155;0;0;0;0
20.02.20;22:05:00;1;290;10243;0;2;0;7689;0;0;0;0;3;0;4913;0;0;0;0;4;0;6982;0;0;0;0;5;0;16767;2;0;0;0;0;0;6;0;12517;2;0;0;0;0;0;7;0;9406;0;0;0;0;8;0;9431;0;0;0;0;9;0;5155;0;0;0;0
20.02.20;22:00:00;1;370;10218;0;2;0;7689;0;0;0;0;3;0;4913;0;0;0;0;4;0;6982;0;0;0;0;5;0;16767;2;0;0;0;0;0;6;0;12517;2;0;0;0;0;0;7;0;9406;0;0;0;0;8;0;9431;0;0;0;0;9;0;5155;0;0;0;0
20.02.20;21:55:00;1;451;10186;0;2;0;7689;0;0;0;0;3;0;4913;0;0;0;0;4;0;6982;0;0;0;0;5;0;16767;2;0;0;0;0;0;6;0;12517;2;0;0;0;0;0;7;0;9406;0;0;0;0;8;0;9431;0;0;0;0;9;0;5155;0;0;0;0
20.02.20;21:50:00;1;433;10148;0;2;0;7689;0;0;0;0;3;0;4913;0;0;0;0;4;0;6982;0;0;0;0;5;0;16767;2;0;0;0;0;0;6;0;12517;2;0;0;0;0;0;7;0;9406;0;0;0;0;8;0;9431;0;0;0;0;9;0;5155;0;0;0;0
20.02.20;21:45:00;1;532;10109;0;2;0;7689;0;0;0;0;3;0;4913;0;0;0;0;4;0;6982;0;0;0;0;5;0;16767;2;0;0;0;0;0;6;0;12517;2;0;0;0;0;0;7;0;9406;0;0;0;0;8;0;9431;0;0;0;0;9;0;5155;0;0;0;0
20.02.20;21:40:00;1;547;10042;0;2;0;7689;0;0;0;0;3;0;4913;0;0;0;0;4;0;6982;0;0;0;0;5;0;16767;2;0;0;0;0;0;6;0;12517;2;0;0;0;0;0;7;0;9406;0;0;0;0;8;0;9431;0;0;0;0;9;0;5155;0;0;0;0
20.02.20;21:35:00;1;628;9994;0;2;0;7689;0;0;0;0;3;0;4913;0;0;0;0;4;0;6982;0;0;0;0;5;0;16767;2;0;0;0;0;0;6;0;12517;2;0;0;0;0;0;7;0;9406;0;0;0;0;8;0;9431;0;0;0;0;9;0;5155;0;0;0;0
20.02.20;21:30:00;1;644;9942;0;2;0;7689;0;0;0;0;3;0;4913;0;0;0;0;4;0;6982;0;0;0;0;5;0;16767;2;0;0;0;0;0;6;0;12517;2;0;0;0;0;0;7;0;9406;0;0;0;0;8;0;9431;0;0;0;0;9;0;5155;0;0;0;0
20.02.20;21:25:00;1;675;9887;0;2;0;7689;0;0;0;0;3;0;4913;0;0;0;0;4;0;6982;0;0;0;0;5;0;16767;2;0;0;0;0;0;6;0;12517;2;0;0;0;0;0;7;0;9406;0;0;0;0;8;0;9431;0;0;0;0;9;0;5155;0;0;0;0
20.02.20;21:20:00;1;703;9831;0;2;0;7689;0;0;0;0;3;0;4913;0;0;0;0;4;0;6982;0;0;0;0;5;0;16767;2;0;0;0;0;0;6;0;12517;2;0;0;0;0;0;7;0;9406;0;0;0;0;8;0;9431;0;0;0;0;9;0;5155;0;0;0;0
20.02.20;21:15:00;1;655;9773;0;2;0;7689;0;0;0;0;3;0;4913;0;0;0;0;4;0;6982;0;0;0;0;5;0;16767;2;0;0;0;0;0;6;0;12517;2;0;0;0;0;0;7;0;9406;0;0;0;0;8;0;9431;0;0;0;0;9;0;5155;0;0;0;0
20.02.20;21:10:00;1;670;9718;0;2;0;7689;0;0;0;0;3;0;4913;0;0;0;0;4;0;6982;0;0;0;0;5;0;16767;2;0;0;0;0;0;6;0;12517;2;0;0;0;0;0;7;0;9406;0;0;0;0;8;0;9431;0;0;0;0;9;0;5155;0;0;0;0
20.02.20;21:05:00;1;761;9662;0;2;0;7689;0;0;0;0;3;0;4913;0;0;0;0;4;0;6982;0;0;0;0;5;0;16767;2;0;0;0;0;0;6;0;12517;2;0;0;0;0;0;7;0;9406;0;0;0;0;8;0;9431;0;0;0;0;9;0;5155;0;0;0;0
20.02.20;21:00:00;1;875;9595;0;2;0;7689;0;0;0;0;3;0;4913;0;0;0;0;4;0;6982;0;0;0;0;5;0;16767;2;0;0;0;0;0;6;0;12517;2;0;0;0;0;0;7;0;9406;0;0;0;0;8;0;9431;0;0;0;0;9;0;5155;0;0;0;0
20.02.20;20:55:00;1;839;9523;0;2;0;7689;0;0;0;0;3;0;4913;0;0;0;0;4;0;6982;0;0;0;0;5;0;16767;2;0;0;0;0;0;6;0;12517;2;0;0;0;0;0;7;0;9406;0;0;0;0;8;0;9431;0;0;0;0;9;0;5155;0;0;0;0
20.02.20;20:50:00;1;863;9430;0;2;0;7689;0;0;0;0;3;0;4913;0;0;0;0;4;0;6982;0;0;0;0;5;0;16767;2;0;0;0;0;0;6;0;12517;2;0;0;0;0;0;7;0;9406;0;0;0;0;8;0;9431;0;0;0;0;9;0;5155;0;0;0;0
20.02.20;20:45:00;1;925;9358;0;2;0;7689;0;0;0;0;3;0;4913;0;0;0;0;4;0;6982;0;0;0;0;5;0;16767;2;0;0;0;0;0;6;0;12517;2;0;0;0;0;0;7;0;9406;0;0;0;0;8;0;9431;0;0;0;0;9;0;5155;0;0;0;0
20.02.20;20:40:00;1;884;9282;0;2;0;7689;0;0;0;0;3;0;4913;0;0;0;0;4;0;6982;0;0;0;0;5;0;16767;2;0;0;0;0;0;6;0;12517;2;0;0;0;0;0;7;0;9406;0;0;0;0;8;0;9431;0;0;0;0;9;0;5155;0;0;0;0
20.02.20;20:35:00;1;911;9208;0;2;0;7689;0;0;0;0;3;0;4913;0;0;0;0;4;0;6982;0;0;0;0;5;0;16767;2;0;0;0;0;0;6;0;12517;2;0;0;0;0;0;7;0;9406;0;0;0;0;8;0;9431;0;0;0;0;9;0;5155;0;0;0;0
20.02.20;20:30:00;1;861;9136;0;2;0;7689;0;0;0;0;3;0;4913;0;0;0;0;4;0;6982;0;0;0;0;5;0;16767;2;0;0;0;0;0;6;0;12517;2;0;0;0;0;0;7;0;9406;0;0;0;0;8;0;9431;0;0;0;0;9;0;5155;0;0;0;0
20.02.20;20:25:00;1;768;9064;0;2;0;7689;0;0;0;0;3;0;4913;0;0;0;0;4;0;6982;0;0;0;0;5;0;16767;2;0;0;0;0;0;6;0;12517;2;0;0;0;0;0;7;0;9406;0;0;0;0;8;0;9431;0;0;0;0;9;0;5155;0;0;0;0
20.02.20;20:20:00;1;742;9001;0;2;0;7689;0;0;0;0;3;0;4913;0;0;0;0;4;0;6982;0;0;0;0;5;0;16767;2;0;0;0;0;0;6;0;12517;2;0;0;0;0;0;7;0;9406;0;0;0;0;8;0;9431;0;0;0;0;9;0;5155;0;0;0;0
20.02.20;20:15:00;1;787;8939;0;2;0;7689;0;0;0;0;3;0;4913;0;0;0;0;4;0;6982;0;0;0;0;5;0;16767;2;0;0;0;0;0;6;0;12517;2;0;0;0;0;0;7;0;9406;0;0;0;0;8;0;9431;0;0;0;0;9;0;5155;0;0;0;0
20.02.20;20:10:00;1;864;8873;0;2;0;7689;0;0;0;0;3;0;4913;0;0;0;0;4;0;6982;0;0;0;0;5;0;16767;2;0;0;0;0;0;6;0;12517;2;0;0;0;0;0;7;0;9406;0;0;0;0;8;0;9431;0;0;0;0;9;0;5155;0;0;0;0
20.02.20;20:05:00;1;948;8807;0;2;0;7689;0;0;0;0;3;0;4913;0;0;0;0;4;0;6982;0;0;0;0;5;0;16767;2;0;0;0;0;0;6;0;12517;2;0;0;0;0;0;7;0;9406;0;0;0;0;8;0;9431;0;0;0;0;9;0;5155;0;0;0;0
20.02.20;20:00:00;1;966;8729;0;2;0;7689;0;0;0;0;3;0;4913;0;0;0;0;4;0;6982;0;0;0;0;5;0;16767;2;0;0;0;0;0;6;0;12517;2;0;0;0;0;0;7;0;9406;0;0;0;0;8;0;9431;0;0;0;0;9;0;5155;0;0;0;0
20.02.20;19:55:00;1;1003;8647;0;2;0;7689;0;0;0;0;3;0;4913;0;0;0;0;4;0;6982;0;0;0;0;5;0;16767;2;0;0;0;0;0;6;0;12517;2;0;0;0;0;0;7;0;9406;0;0;0;0;8;0;9431;0;0;0;0;9;0;5155;0;0;0;0
20.02.20;19:50:00;1;1005;8564;0;2;0;7689;0;0;0;0;3;0;4913;0;0;0;0;4;0;6982;0;0;0;0;5;0;16767;2;0;0;0;0;0;6;0;12517;2;0;0;0;0;0;7;0;9406;0;0;0;0;8;0;9431;0;0;0;0;9;0;5155;0;0;0;0
20.02.20;19:45:00;1;1031;8480;0;2;0;7689;0;0;0;0;3;0;4913;0;0;0;0;4;0;6982;0;0;0;0;5;0;16767;2;0;0;0;0;0;6;0;12517;2;0;0;0;0;0;7;0;9406;0;0;0;0;8;0;9431;0;0;0;0;9;0;5155;0;0;0;0
20.02.20;19:40:00;1;1216;8392;0;2;0;7689;0;0;0;0;3;0;4913;0;0;0;0;4;0;6982;0;0;0;0;5;0;16767;2;0;0;0;0;0;6;0;12517;2;0;0;0;0;0;7;0;9406;0;0;0;0;8;0;9431;0;0;0;0;9;0;5155;0;0;0;0
20.02.20;19:35:00;1;1057;8292;0;2;0;7689;0;0;0;0;3;0;4913;0;0;0;0;4;0;6982;0;0;0;0;5;0;16767;2;0;0;0;0;0;6;0;12517;2;0;0;0;0;0;7;0;9406;0;0;0;0;8;0;9431;0;0;0;0;9;0;5155;0;0;0;0
20.02.20;19:30:00;1;1079;8204;0;2;0;7689;0;0;0;0;3;0;4913;0;0;0;0;4;0;6982;0;0;0;0;5;0;16767;2;0;0;0;0;0;6;0;12517;2;0;0;0;0;0;7;0;9406;0;0;0;0;8;0;9431;0;0;0;0;9;0;5155;0;0;0;0
20.02.20;19:25:00;1;982;8114;0;2;0;7689;0;0;0;0;3;0;4913;0;0;0;0;4;0;6982;0;0;0;0;5;0;16767;2;0;0;0;0;0;6;0;12517;2;0;0;0;0;0;7;0;9406;0;0;0;0;8;0;9431;0;0;0;0;9;0;5155;0;0;0;0
20.02.20;19:20:00;1;910;8032;0;2;0;7689;0;0;0;0;3;0;4913;0;0;0;0;4;0;6982;0;0;0;0;5;0;16767;2;0;0;0;0;0;6;0;12517;2;0;0;0;0;0;7;0;9406;0;0;0;0;8;0;9431;0;0;0;0;9;0;5155;0;0;0;0
20.02.20;19:15:00;1;800;7956;0;2;0;7689;0;0;0;0;3;0;4913;0;0;0;0;4;0;6982;0;0;0;0;5;0;16767;2;0;0;0;0;0;6;0;12517;2;0;0;0;0;0;7;0;9406;0;0;0;0;8;0;9431;0;0;0;0;9;0;5155;0;0;0;0
20.02.20;19:10:00;1;686;7889;0;2;0;7689;0;0;0;0;3;0;4913;0;0;0;0;4;0;6982;0;0;0;0;5;0;16767;2;0;0;0;0;0;6;0;12517;2;0;0;0;0;0;7;0;9406;0;0;0;0;8;0;9431;0;0;0;0;9;0;5155;0;0;0;0
20.02.20;19:05:00;1;621;7832;0;2;0;7689;0;0;0;0;3;0;4913;0;0;0;0;4;0;6982;0;0;0;0;5;0;16767;2;0;0;0;0;0;6;0;12517;2;0;0;0;0;0;7;0;9406;0;0;0;0;8;0;9431;0;0;0;0;9;0;5155;0;0;0;0
20.02.20;19:00:00;1;604;7781;0;2;0;7689;0;0;0;0;3;0;4913;0;0;0;0;4;0;6982;0;0;0;0;5;0;16767;2;0;0;0;0;0;6;0;12517;2;0;0;0;0;0;7;0;9406;0;0;0;0;8;0;9431;0;0;0;0;9;0;5155;0;0;0;0
20.02.20;18:55:00;1;585;7730;0;2;0;7689;0;0;0;0;3;0;4913;0;0;0;0;4;0;6982;0;0;0;0;5;0;16767;2;0;0;0;0;0;6;0;12517;2;0;0;0;0;0;7;0;9406;0;0;0;0;8;0;9431;0;0;0;0;9;0;5155;0;0;0;0
20.02.20;18:50:00;1;565;7682;0;2;0;7689;0;0;0;0;3;0;4913;0;0;0;0;4;0;6982;0;0;0;0;5;0;16767;2;0;0;0;0;0;6;0;12517;2;0;0;0;0;0;7;0;9406;0;0;0;0;8;0;9431;0;0;0;0;9;0;5155;0;0;0;0
20.02.20;18:45:00;1;578;7635;0;2;0;7689;0;0;0;0;3;0;4913;0;0;0;0;4;0;6982;0;0;0;0;5;0;16767;2;0;0;0;0;0;6;0;12517;2;0;0;0;0;0;7;0;9406;0;0;0;0;8;0;9431;0;0;0;0;9;0;5155;0;0;0;0
20.02.20;18:40:00;1;593;7587;0;2;0;7689;0;0;0;0;3;0;4913;0;0;0;0;4;0;6982;0;0;0;0;5;0;16767;2;0;0;0;0;0;6;0;12517;2;0;0;0;0;0;7;0;9406;0;0;0;0;8;0;9431;0;0;0;0;9;0;5155;0;0;0;0
20.02.20;18:35:00;1;581;7536;0;2;0;7689;0;0;0;0;3;0;4913;0;0;0;0;4;0;6982;0;0;0;0;5;0;16767;2;0;0;0;0;0;6;0;12517;2;0;0;0;0;0;7;0;9406;0;0;0;0;8;0;9431;0;0;0;0;9;0;5155;0;0;0;0
20.02.20;18:30:00;1;902;7488;0;2;0;7689;0;0;0;0;3;0;4913;0;0;0;0;4;0;6982;0;0;0;0;5;0;16767;2;0;0;0;0;0;6;0;12517;2;0;0;0;0;0;7;0;9406;0;0;0;0;8;0;9431;0;0;0;0;9;0;5155;0;0;0;0
20.02.20;18:25:00;1;566;7417;0;2;0;7689;0;0;0;0;3;0;4913;0;0;0;0;4;0;6982;0;0;0;0;5;0;16767;2;0;0;0;0;0;6;0;12517;2;0;0;0;0;0;7;0;9406;0;0;0;0;8;0;9431;0;0;0;0;9;0;5155;0;0;0;0
20.02.20;18:20:00;1;610;7370;0;2;0;7689;0;0;0;0;3;0;4913;0;0;0;0;4;0;6982;0;0;0;0;5;0;16767;2;0;0;0;0;0;6;0;12517;2;0;0;0;0;0;7;0;9406;0;0;0;0;8;0;9431;0;0;0;0;9;0;5155;0;0;0;0
20.02.20;18:15:00;1;622;7320;0;2;0;7689;0;0;0;0;3;0;4913;0;0;0;0;4;0;6982;0;0;0;0;5;0;16767;2;0;0;0;0;0;6;0;12517;2;0;0;0;0;0;7;0;9406;0;0;0;0;8;0;9431;0;0;0;0;9;0;5155;0;0;0;0
20.02.20;18:10:00;1;629;7268;0;2;0;7689;0;0;0;0;3;0;4913;0;0;0;0;4;0;6982;0;0;0;0;5;0;16767;2;0;0;0;0;0;6;0;12517;2;0;0;0;0;0;7;0;9406;0;0;0;0;8;0;9431;0;0;0;0;9;0;5155;0;0;0;0
20.02.20;18:05:00;1;650;7215;0;2;0;7689;0;0;0;0;3;0;4913;0;0;0;0;4;0;6982;0;0;0;0;5;0;16767;2;0;0;0;0;0;6;0;12517;2;0;0;0;0;0;7;0;9406;0;0;0;0;8;0;9431;0;0;0;0;9;0;5155;0;0;0;0
20.02.20;18:00:00;1;653;7160;0;2;0;7689;0;0;226;11;3;0;4913;2;0;293;17;4;0;6982;0;0;27;6;5;0;16767;2;0;0;0;0;0;6;0;12517;2;0;0;0;0;0;7;0;9406;0;0;0;0;8;0;9431;0;0;0;0;9;0;5155;0;0;0;0
20.02.20;17:55:00;1;639;7106;0;2;0;7689;6;0;343;14;3;0;4913;6;2;400;17;4;0;6982;2;0;116;13;5;0;16767;2;0;0;189;225;13;6;0;12517;2;5;3;263;209;17;7;0;9406;0;0;0;0;8;0;9431;0;0;167;9;9;0;5155;0;0;174;7
20.02.20;17:50:00;1;624;7052;0;2;0;7689;6;0;391;15;3;1;4913;6;5;451;17;4;0;6982;1;0;199;14;5;10;16767;1;0;2;406;622;23;6;0;12517;23;10;4;197;558;22;7;0;9406;0;0;270;10;8;0;9431;6;0;196;8;9;0;5155;6;1;400;12
20.02.20;17:45:00;1;619;7000;0;2;0;7689;6;0;408;15;3;0;4912;6;0;519;18;4;0;6982;1;0;205;14;5;40;16766;1;3;7;397;629;24;6;0;12517;23;5;4;266;578;22;7;0;9406;6;2;427;17;8;2;9431;6;3;415;16;9;1;5155;6;2;464;12
20.02.20;17:40:00;1;1118;6948;0;2;4;7689;4;10;407;15;3;0;4912;3;13;482;18;4;0;6982;3;0;199;14;5;87;16763;4;18;21;379;602;24;6;42;12517;1;19;32;482;453;23;7;4;9406;6;9;435;17;8;2;9431;6;5;463;16;9;0;5155;6;0;535;12
20.02.20;17:35:00;1;617;6872;0;2;11;7689;3;25;397;16;3;2;4912;6;8;513;18;4;0;6982;3;0;199;14;5;95;16755;4;26;24;379;602;24;6;61;12514;4;24;33;450;419;24;7;1;9406;6;7;466;17;8;2;9431;0;7;369;13;9;2;5155;4;4;512;12
20.02.20;17:30:00;1;736;6819;0;2;108;7687;4;140;359;16;3;39;4912;6;55;489;18;4;40;6982;3;42;203;15;5;152;16747;4;56;52;379;602;24;6;93;12508;4;43;54;450;419;24;7;33;9406;6;64;417;17;8;33;9430;6;62;420;17;9;3;5154;6;8;536;12
20.02.20;17:25:00;1;626;6758;0;2;308;7678;4;345;358;17;3;176;4909;4;214;443;19;4;236;6979;5;245;229;15;5;238;16734;4;107;91;379;602;24;6;161;12500;4;91;98;450;419;24;7;107;9403;4;142;448;17;8;87;9428;4;131;423;17;9;20;5154;6;30;505;13
20.02.20;17:20:00;1;627;6706;0;2;203;7654;4;238;368;16;3;111;4895;4;147;476;18;4;165;6960;5;171;223;15;5;269;16714;4;119;105;379;602;24;6;174;12487;4;72;77;450;419;24;7;145;9394;4;183;478;17;8;111;9420;4;151;466;17;9;12;5152;4;17;552;13
20.02.20;17:15:00;1;601;6653;0;2;95;7638;4;127;363;17;3;11;4886;4;17;540;18;4;53;6947;3;55;197;15;5;235;16691;4;106;94;379;602;24;6;150;12472;4;76;81;450;419;24;7;75;9383;4;108;443;17;8;69;9411;4;108;438;17;9;8;5150;4;13;547;13
20.02.20;17:10:00;1;1630;6589;0;2;131;7630;4;167;372;17;3;74;4885;4;110;480;19;4;82;6942;3;86;207;15;5;313;16671;4;148;126;380;602;24;6;195;12459;4;104;109;450;421;24;7;91;9376;4;143;436;18;8;106;9405;4;139;424;17;9;22;5150;6;32;553;13
20.02.20;17:05:00;1;1856;6444;0;2;225;7619;4;264;383;17;3;130;4879;4;173;507;19;4;171;6935;5;178;228;15;5;451;16645;4;221;185;396;622;24;6;318;12443;4;147;176;505;533;24;7;119;9369;4;147;272;10;8;197;9397;4;237;455;17;9;80;5148;4;105;404;11
20.02.20;17:00:00;1;2502;6265;0;2;320;7600;4;366;394;17;3;195;4868;4;237;488;19;4;253;6921;5;264;234;15;5;570;16606;4;284;240;406;619;24;6;428;12415;4;213;227;579;560;24;7;318;9354;4;354;477;18;8;314;9380;4;354;468;17;9;168;5139;4;201;512;14
20.02.20;16:55:00;1;2472;6085;0;2;367;7573;4;413;406;17;3;224;4851;4;268;513;19;4;293;6900;5;305;239;15;5;630;16557;4;312;265;413;652;24;6;470;12378;4;241;268;585;564;24;7;296;9327;4;330;363;14;8;362;9354;4;406;476;17;9;193;5125;4;229;530;14
20.02.20;16:50:00;1;2182;5893;0;2;386;7543;4;431;397;17;3;236;4833;4;283;501;19;4;311;6875;5;324;236;15;5;670;16504;4;323;276;414;668;24;6;493;12339;4;240;259;592;555;24;7;370;9296;4;421;473;18;8;384;9323;4;429;470;17;9;202;5109;4;237;510;14
20.02.20;16:45:00;1;2131;5752;0;2;385;7510;4;431;403;17;3;238;4813;4;283;508;19;4;304;6849;5;316;238;15;5;677;16449;4;329;285;400;641;24;6;507;12297;4;247;260;590;567;24;7;297;9265;4;332;382;14;8;377;9291;4;419;476;17;9;118;5092;4;140;298;8
20.02.20;16:40:00;1;2533;5558;0;2;402;7478;4;447;397;17;3;246;4793;4;292;506;19;4;329;6824;5;342;235;15;5;761;16393;4;386;322;420;642;24;6;566;12255;4;281;305;579;563;24;7;388;9234;4;433;467;18;8;381;9260;4;434;479;17;9;205;5075;4;242;510;14
20.02.20;16:35:00;1;1207;5345;0;2;584;7445;4;634;399;17;3;361;4773;4;412;520;19;4;486;6797;5;506;240;16;5;1042;16328;4;535;442;420;661;24;6;776;12207;4;390;401;588;570;24;7;466;9202;4;500;382;14;8;564;9228;4;614;478;18;9;301;5058;4;345;522;15
20.02.20;16:30:00;1;897;5250;0;2;479;7396;4;527;401;16;3;301;4743;4;348;505;18;4;401;6756;5;417;238;15;5;871;16238;4;444;363;414;653;24;6;658;12140;4;321;338;583;566;24;7;516;9155;4;552;470;18;8;521;9182;4;562;470;18;9;281;5034;4;324;524;14
20.02.20;16:25:00;1;852;5151;0;2;308;7355;4;352;393;16;3;190;4717;4;232;498;18;4;251;6722;5;261;230;16;5;635;16169;4;310;265;414;639;24;6;470;12087;4;228;242;564;550;24;7;298;9111;4;339;468;18;8;302;9137;4;342;476;18;9;163;5010;4;198;500;14
20.02.20;16:20:00;1;531;5081;0;2;336;7330;4;378;394;16;3;205;4701;4;249;503;18;4;274;6701;5;286;234;16;5;689;16116;4;343;288;408;637;25;6;511;12048;4;251;269;583;556;24;7;325;9086;4;371;459;18;8;328;9112;4;372;476;18;9;180;4996;4;212;510;15
20.02.20;16:15:00;1;295;5038;0;2;441;7302;4;490;398;16;3;269;4684;4;316;513;18;4;366;6678;5;381;237;16;5;858;16058;4;431;360;419;664;25;6;630;12005;4;309;317;587;563;24;7;445;9059;4;491;476;18;8;442;9084;4;493;471;18;9;237;4981;4;275;501;15
20.02.20;16:10:00;1;297;5013;0;2;589;7265;4;637;405;16;3;362;4662;4;415;513;18;4;489;6648;5;510;238;16;5;1046;15985;4;531;441;419;676;25;6;784;11950;4;404;414;586;570;24;7;515;9014;0;563;402;15;8;622;9048;4;672;478;18;9;332;4961;4;375;518;15
20.02.20;16:05:00;1;289;4989;0;2;570;7216;4;621;400;16;3;355;4631;4;408;509;18;4;471;6607;5;490;237;16;5;1005;15898;4;512;426;419;662;25;6;753;11885;4;378;380;587;569;24;7;485;8972;4;525;381;14;8;603;8995;4;663;484;18;9;326;4933;4;368;514;15
20.02.20;16:00:00;1;286;4964;0;2;642;7168;4;693;404;16;3;400;4602;4;454;515;18;4;533;6568;5;556;239;16;5;1140;15814;4;589;485;421;687;25;6;853;11822;4;421;427;591;562;24;7;239;8886;0;253;159;6;8;683;8945;4;736;476;18;9;361;4906;4;405;513;15
20.02.20;15:55:00;1;318;4940;0;2;681;7115;4;733;404;16;3;423;4569;4;476;515;18;4;565;6523;5;589;239;16;5;1209;15718;4;611;510;421;670;25;6;897;11750;4;448;456;588;571;24;7;727;8866;4;774;471;18;8;724;8888;4;782;482;18;9;388;4876;4;435;528;15
20.02.20;15:50:00;1;365;4912;0;2;631;7058;4;684;401;16;3;397;4533;4;449;507;18;4;525;6476;5;547;237;16;5;1107;15618;4;560;469;414;677;25;6;834;11675;4;412;424;583;574;24;7;683;8806;4;732;475;18;8;691;8829;4;741;473;18;9;370;4844;4;417;522;15
20.02.20;15:45:00;1;331;4881;0;2;471;7004;4;519;397;16;3;293;4500;4;342;504;18;4;389;6432;5;405;238;16;5;866;15527;4;445;360;417;660;25;6;657;11606;4;322;337;583;563;24;7;501;8749;4;560;478;18;8;516;8771;4;567;474;18;9;273;4813;4;317;530;15
20.02.20;15:40:00;1;319;4853;0;2;367;6965;4;414;399;16;3;229;4475;4;276;500;18;4;303;6399;5;316;231;16;5;779;15456;4;392;323;413;663;25;6;569;11552;4;283;296;574;564;24;7;397;8706;4;434;461;18;8;387;8727;4;429;472;18;9;203;4790;4;242;513;15
20.02.20;15:35:00;1;229;4829;0;2;393;6934;4;440;393;16;3;239;4456;4;284;491;18;4;332;6374;5;346;234;16;5;878;15392;4;442;364;414;672;25;6;644;11504;4;325;334;575;565;24;7;409;8673;4;451;452;18;8;325;8695;4;360;379;14;9;216;4773;4;253;498;15
20.02.20;15:30:00;1;228;4809;0;2;484;6901;4;534;394;16;3;300;4436;4;351;510;18;4;423;6346;5;440;239;16;5;1058;15317;4;544;454;419;679;25;6;801;11449;4;407;414;584;566;24;7;509;8639;4;558;475;18;8;512;8660;4;563;463;18;9;273;4755;4;316;526;15
20.02.20;15:25:00;1;229;4767;0;2;546;6861;4;597;398;16;3;336;4411;4;386;494;18;4;470;6311;5;490;239;16;5;1158;15228;4;591;489;421;676;25;6;868;11382;4;441;452;589;570;24;7;583;8597;4;637;484;18;8;587;8618;4;639;473;18;9;312;4732;4;356;517;15
20.02.20;15:20:00;1;257;4748;0;2;619;6815;4;670;398;17;3;384;4383;4;437;506;18;4;531;6272;5;553;238;17;5;1229;15131;4;618;520;426;682;25;6;920;11309;4;452;455;590;567;24;7;680;8548;4;727;482;18;8;677;8569;4;729;471;18;9;364;4706;4;409;532;16
20.02.20;15:15:00;1;276;4726;0;2;619;6764;4;670;400;17;3;388;4351;4;439;509;19;4;530;6227;5;552;239;17;5;1205;15030;4;623;514;415;669;25;6;911;11232;4;454;463;589;560;24;7;696;8492;4;749;481;18;8;711;8513;4;756;478;18;9;379;4676;4;428;533;16
20.02.20;15:10:00;1;232;4705;0;2;573;6712;4;626;400;17;3;355;4318;4;406;505;19;4;483;6183;5;503;238;17;5;1145;14930;4;584;485;414;682;25;6;860;11157;4;448;447;583;564;24;7;634;8433;4;686;485;18;8;637;8453;4;687;470;18;9;345;4644;4;384;526;16
20.02.20;15:05:00;1;276;4686;0;2;559;6665;4;610;397;17;3;350;4289;4;401;502;19;4;483;6143;5;503;237;17;5;1151;14834;4;583;487;418;660;25;6;865;11085;4;439;451;591;560;24;7;636;8380;4;674;476;19;8;630;8400;4;682;474;18;9;339;4615;4;383;524;16
20.02.20;15:00:00;1;275;4663;0;2;461;6618;4;508;397;17;3;285;4260;4;334;504;19;4;393;6103;5;410;233;17;5;1010;14741;4;504;423;417;666;25;6;746;11014;4;373;378;582;566;24;7;486;8328;4;527;473;19;8;484;8348;4;532;471;18;9;132;4587;4;153;258;8
20.02.20;14:55:00;1;277;4640;0;2;619;6580;4;674;402;17;3;383;4236;4;435;499;19;4;544;6070;5;566;237;17;5;1365;14657;4;705;583;420;689;25;6;1025;10951;4;519;532;590;566;24;7;644;8287;4;686;466;19;8;644;8307;4;691;476;18;9;341;4564;4;386;520;16
20.02.20;14:50:00;1;231;4617;0;2;805;6528;4;865;406;18;3;507;4204;4;565;517;19;4;715;6025;5;745;237;17;5;1717;14538;4;893;738;419;680;25;6;1300;10863;4;650;662;599;570;24;7;838;8233;4;892;475;19;8;841;8253;4;896;478;18;9;362;4535;4;403;417;12
20.02.20;14:45:00;1;279;4598;0;2;729;6461;4;786;403;18;3;460;4162;4;512;517;19;4;646;5965;5;673;239;17;5;1548;14396;4;804;662;422;694;25;6;1168;10754;4;596;593;589;562;24;7;801;8165;4;856;480;19;8;801;8184;4;852;470;18;9;433;4498;4;481;524;16
20.02.20;14:40:00;1;232;4574;0;2;865;6400;4;928;408;18;3;543;4123;4;602;520;19;4;761;5911;5;793;244;18;5;1774;14265;4;938;773;422;699;25;6;1349;10656;4;697;693;599;570;24;7;976;8096;4;1035;475;19;8;977;8116;4;1039;481;19;9;416;4461;4;459;425;13
20.02.20;14:35:00;1;231;4554;0;2;824;6329;4;883;406;18;3;523;4078;4;580;515;19;4;731;5848;5;761;242;18;5;1689;14115;4;881;723;421;687;25;6;1276;10543;4;636;638;596;571;24;7;934;8015;4;1000;481;19;8;951;8036;4;1012;482;19;9;518;4418;4;571;524;17
20.02.20;14:30:00;1;231;4535;0;2;739;6260;4;797;406;18;3;464;4035;4;518;510;19;4;649;5787;5;676;241;18;5;1539;13978;4;797;654;425;678;26;6;1159;10438;4;576;594;592;562;24;7;808;7937;4;864;466;19;8;820;7957;4;866;478;19;9;440;4375;4;490;524;17
20.02.20;14:25:00;1;229;4516;0;2;700;6199;4;756;402;18;3;442;3996;4;496;506;19;4;617;5733;5;643;238;18;5;1481;13850;4;766;626;423;674;26;6;1114;10342;4;559;563;588;566;24;7;307;7843;0;327;188;7;8;636;7888;4;679;377;15;9;260;4338;4;288;314;10
20.02.20;14:20:00;1;230;4496;0;2;672;6140;4;730;403;18;3;421;3960;4;474;501;20;4;591;5682;5;615;238;18;5;1428;13729;4;745;609;421;690;26;6;1075;10250;4;540;541;588;569;24;7;779;7804;4;830;476;19;8;773;7823;4;831;475;19;9;420;4303;4;469;525;17
20.02.20;14:15:00;1;273;4477;0;2;813;6084;4;874;404;19;3;512;3925;4;569;512;20;4;722;5633;5;752;241;18;5;1714;13610;4;890;738;424;677;26;6;1294;10159;4;672;664;590;566;24;7;745;7740;4;804;384;15;8;946;7758;4;1006;479;19;9;514;4267;4;564;523;17